Location: Silverado United Methodist Church
(33.8114°N, 118.2108°W)
Time: 23:10:22
(UTC+00:00)

Daily predictions for brighter satellites

Satellite Brightness Start Highest point End
(mag) Time Altitude Azimuth Time Altitude Azimuth Time Altitude Azimuth
Meteor 1-5 Rocket 4.1 12:07:47 10° NNW 12:13:16 74° W 12:18:55 10° S
Cosmos 1500 3.0 12:11:01 10° N 12:14:46 86° W 12:18:31 10° S
IDEFIX/ARIANE 42P 3.0 12:12:57 10° N 12:17:54 42° WNW 12:20:20 26° SW
Cosmos 1461 4.3 12:20:11 21° SSW 12:20:11 21° SSW 12:22:04 10° S
Cosmos 773 Rocket 4.2 12:16:16 29° SW 12:18:29 47° WNW 12:23:27 10° N
USA 81 4.4 12:17:04 23° SW 12:19:54 42° W 12:24:55 10° NNW
S3M 4.2 12:14:48 10° N 12:21:00 74° E 12:27:15 10° SSE
SL-4 R/B 3.4 12:20:55 10° NNW 12:24:06 31° NE 12:27:28 10° ESE
MSX 3.8 12:19:30 10° N 12:25:08 59° WNW 12:30:44 10° SSW
CZ-4B R/B 3.6 12:22:56 10° NNE 12:26:35 83° E 12:30:13 10° S
Iridium 4 Rocket 4.5 12:27:40 21° WNW 12:27:40 21° WNW 12:30:19 10° NNW
Cosmos 1315 Rocket 3.5 12:29:49 25° WSW 12:31:21 34° WNW 12:35:08 10° NNW
Cosmos 1812 3.7 12:31:58 26° W 12:32:21 26° WNW 12:35:40 10° NNW
OAO 2 Rocket 3.2 12:31:16 23° WSW 12:34:17 81° SSE 12:39:13 10° E
Sakura Rocket 3.9 12:34:04 22° WSW 12:36:46 47° S 12:42:26 10° ESE
USA 215 3.5 12:30:53 10° NNE 12:37:12 54° NW 12:42:31 15° WSW
Cosmos 1703 Rocket 3.6 12:33:50 10° SSW 12:38:13 60° W 12:42:36 10° N
TSX-5 3.5 12:36:41 10° SSW 12:40:11 73° ESE 12:43:21 10° NNE
Cosmos 1680 Rocket 4.0 12:37:03 10° S 12:42:15 65° ESE 12:47:27 10° NNE
Cosmos 923 Rocket 4.1 12:37:14 10° SSW 12:42:34 89° ESE 12:47:56 10° NNE
Sich 1 Rocket 4.5 12:39:52 10° N 12:44:15 54° E 12:48:38 10° SSE
Hubble Space Telescope 1.9 12:42:13 18° WSW 12:44:29 30° SSW 12:48:07 10° SE
Cosmos 44 Rocket 4.0 12:44:35 15° WSW 12:48:16 37° WNW 12:52:52 10° N
Lacrosse 5 rocket 2.4 12:49:36 10° WNW 12:53:19 27° WSW 12:57:09 10° S
Atlas Centaur 2 3.3 12:48:29 14° W 12:54:19 47° SSW 13:02:07 10° SE
Cosmos 2266 Rocket 3.9 12:48:42 10° SSW 12:54:45 64° W 13:00:46 10° N
H-2A R/B 4.1 12:56:21 10° NW 12:58:09 13° WNW 12:59:22 12° W
CZ-2C R/B 3.0 12:54:12 10° N 12:58:46 39° WNW 13:03:26 10° SW
Okean 1 3.2 12:57:21 10° S 13:01:18 78° W 13:05:16 10° N
PSLV R/B 3.9 12:58:51 10° N 13:02:47 56° WNW 13:06:34 10° SSW
Cosmos 883 Rocket 4.5 12:56:42 10° N 13:02:50 87° W 13:08:58 10° S
Cosmos 2084 Rocket 3.4 13:00:57 10° NW 13:05:17 65° WSW 13:09:32 10° SSE
Lacrosse 5 2.9 13:00:45 10° NNW 13:05:37 47° NE 13:10:29 10° ESE
Meteor 1-31 Rocket 3.7 13:02:45 10° NNW 13:06:05 27° WNW 13:09:23 10° SW
Okean 1-7 3.7 13:02:13 10° SW 13:06:13 34° W 13:10:13 10° NNW
Helios 1A Rocket 3.0 13:03:17 10° NNE 13:07:23 88° ESE 13:11:28 10° SSW
Meteor PRIRODA 4.1 13:04:25 10° N 13:07:53 39° WNW 13:11:20 10° SW
Cosmos 1666 3.0 13:05:59 10° NNW 13:09:34 43° W 13:13:09 10° SSW
Abrixas rocket 3.6 13:08:06 10° SSW 13:10:53 33° SE 13:13:39 10° ENE
MOS 1-B 4.4 13:05:21 10° N 13:11:07 68° WNW 13:16:51 10° SSW
Cosmos 1975 4.0 13:07:11 10° N 13:11:08 49° E 13:15:04 10° SSE
Intelsat 5-1 Rocket 4.2 12:58:53 10° WSW 13:11:56 41° SSW 13:16:50 10° SE
H-2A R/B 3.5 13:10:09 10° SW 13:12:28 15° S 13:16:39 10° SSE
SeaSat 1 4.4 13:10:34 10° NNW 13:12:33 12° NW 13:14:33 10° WNW
PAYLOAD B 4.3 13:08:46 10° NNE 13:14:23 85° WNW 13:19:59 10° SSW
COSMO-SKYMED 1 2.7 13:10:13 10° SSE 13:14:32 83° ENE 13:18:53 10° N
Cosmos 1340 4.1 13:12:05 10° NW 13:14:45 18° W 13:17:23 10° SW
SJ-12 3.9 13:10:56 10° N 13:15:00 82° WNW 13:19:03 10° SSW
FENGYUN 3A 4.3 13:12:12 10° NNE 13:17:34 63° E 13:22:55 10° S
CZ-3 R/B 3.6 12:55:43 10° W 13:22:38 45° SW 13:30:06 10° SSE
